Location: Bauerbach
(50.4985°N, 10.3912°E)
Time: 11:24:14
(UTC+00:00)

Cosmos 1943 Rocket - Pass Details

Date: 13 January 2026
Orbit: 811 x 842 km, 71.0° (Epoch: 15 February)

Event Time Altitude Azimuth Distance (km) Brightness Sun altitude
Rises 04:16:58 0° 166° (SSE) 3,325 5.5 -27.4°
Reaches altitude 10° 04:19:50 10° 152° (SSE) 2,396 4.9 -27.0°
Maximum altitude 04:23:59 22° 102° (ESE) 1,691 4.5 -26.3°
Drops below altitude 10° 04:28:09 10° 53° (NE) 2,407 5.2 -25.7°
Sets 04:31:02 0° 39° (NE) 3,345 5.8 -25.2°
